Location: Anglesey
(53.1800°N, 4.2200°W)
Time: 06:22:00
(UTC+00:00)

OTV 5 (USA 277) - Pass Details

Date: 17 October 2017
Orbit: 404 x 417 km, 43.0° (Epoch: 07 September)

Event Time Altitude Azimuth Distance (km) Brightness Sun altitude
Rises 19:00:00 0° 238° (WSW) 2,352 ? -7.3°
Reaches altitude 10° 19:02:45 10° 214° (SW) 1,490 ? -7.7°
Maximum altitude 19:04:45 15° 178° (S) 1,228 ? -8.0°
Drops below altitude 10° 19:06:45 10° 141° (SE) 1,491 ? -8.3°
Enters shadow 19:08:02 - 127° (SE) 1,854 ? -8.5°
